| time (UTC) | temp F | wind direction | speed MPH | gust MPH | rain 1hr in | rain 24hr in | rain mn in | humidity % | barometer mb |
| 20260509150139 | 79 | 224 | 3.0 | 3.0 | 0.00 | 0.00 | 0.00 | 67 | 1009.7 |
| 20260509145635 | 78 | 177 | 3.0 | 3.0 | 0.00 | 0.00 | 0.00 | 68 | 1009.8 |
| 20260509145130 | 78 | 223 | 3.0 | 3.0 | 0.00 | 0.00 | 0.00 | 67 | 1009.7 |
| 20260509144627 | 78 | 160 | 2.0 | 2.0 | 0.00 | 0.00 | 0.00 | 71 | 1009.9 |
| 20260509144124 | 77 | 250 | 3.0 | 5.0 | 0.00 | 0.00 | 0.00 | 72 | 1009.8 |
| 20260509143621 | 77 | 276 | 2.0 | 2.0 | 0.00 | 0.00 | 0.00 | 73 | 1009.8 |
| 20260509143119 | 76 | 309 | 2.0 | 3.0 | 0.00 | 0.00 | 0.00 | 75 | 1009.7 |
| 20260509142614 | 76 | 286 | 2.0 | 3.0 | 0.00 | 0.00 | 0.00 | 76 | 1009.7 |
| 20260509142110 | 76 | 209 | 1.0 | 2.0 | 0.00 | 0.00 | 0.00 | 77 | 1009.7 |
| 20260509141606 | 75 | 96 | 0.0 | 1.0 | 0.00 | 0.00 | 0.00 | 78 | 1009.7 |
| 20260509141103 | 75 | 357 | 5.0 | 6.0 | 0.00 | 0.00 | 0.00 | 78 | 1009.8 |
| 20260509140600 | 75 | 168 | 1.0 | 2.0 | 0.00 | 0.00 | 0.00 | 79 | 1009.6 |
| 20260509140058 | 74 | 323 | 3.0 | 3.0 | 0.00 | 0.00 | 0.00 | 81 | 1009.6 |
| 20260509135555 | 73 | 328 | 3.0 | 3.0 | 0.00 | 0.00 | 0.00 | 82 | 1009.7 |
| 20260509135053 | 73 | 4 | 1.0 | 2.0 | 0.00 | 0.00 | 0.00 | 83 | 1009.8 |
| 20260509134549 | 72 | 358 | 3.0 | 3.0 | 0.00 | 0.00 | 0.00 | 84 | 1009.4 |
| 20260509134047 | 72 | 313 | 5.0 | 7.0 | 0.00 | 0.00 | 0.00 | 84 | 1009.7 |
| 20260509133544 | 72 | 248 | 2.0 | 2.0 | 0.00 | 0.00 | 0.00 | 85 | 1009.5 |
| 20260509133041 | 72 | 252 | 2.0 | 2.0 | 0.00 | 0.00 | 0.00 | 85 | 1009.6 |
| 20260509132540 | 71 | 284 | 2.0 | 2.0 | 0.00 | 0.00 | 0.00 | 85 | 1009.5 |
| 20260509132038 | 71 | 319 | 3.0 | 5.0 | 0.00 | 0.00 | 0.00 | 85 | 1009.4 |
| 20260509131533 | 71 | 283 | 3.0 | 3.0 | 0.00 | 0.00 | 0.00 | 85 | 1009.5 |
| 20260509131031 | 71 | 289 | 7.0 | 7.0 | 0.00 | 0.00 | 0.00 | 85 | 1009.7 |
| 20260509130526 | 71 | 233 | 3.0 | 3.0 | 0.00 | 0.00 | 0.00 | 85 | 1009.4 |
| 20260509130023 | 70 | 269 | 3.0 | 5.0 | 0.00 | 0.00 | 0.00 | 85 | 1009.6 |
| 20260509125519 | 70 | 348 | 3.0 | 3.0 | 0.00 | 0.00 | 0.00 | 85 | 1009.5 |
| 20260509125016 | 70 | 278 | 3.0 | 3.0 | 0.00 | 0.00 | 0.00 | 85 | 1009.5 |
| 20260509124512 | 70 | 336 | 4.0 | 5.0 | 0.00 | 0.00 | 0.00 | 85 | 1009.4 |
| 20260509124010 | 70 | 300 | 4.0 | 6.0 | 0.00 | 0.00 | 0.00 | 86 | 1009.3 |
| 20260509123508 | 70 | 111 | 2.0 | 3.0 | 0.00 | 0.00 | 0.00 | 86 | 1009.4 |
| 20260509123004 | 70 | 313 | 3.0 | 5.0 | 0.00 | 0.00 | 0.00 | 87 | 1009.5 |
| 20260509122500 | 70 | 288 | 4.0 | 5.0 | 0.00 | 0.00 | 0.00 | 88 | 1009.0 |
| 20260509121957 | 70 | 334 | 2.0 | 3.0 | 0.00 | 0.00 | 0.00 | 88 | 1009.4 |
| 20260509121454 | 70 | 202 | 2.0 | 2.0 | 0.00 | 0.00 | 0.00 | 89 | 1009.2 |
| 20260509120952 | 70 | 198 | 2.0 | 2.0 | 0.00 | 0.00 | 0.00 | 89 | 1008.9 |
| 20260509120449 | 69 | 152 | 0.0 | 0.0 | 0.00 | 0.00 | 0.00 | 89 | 1008.9 |
| 20260509115947 | 70 | 160 | 0.0 | 1.0 | 0.00 | 0.00 | 0.00 | 89 | 1009.0 |
| 20260509115444 | 70 | 165 | 1.0 | 1.0 | 0.00 | 0.00 | 0.00 | 89 | 1009.0 |
| 20260509114942 | 70 | 158 | 0.0 | 0.0 | 0.00 | 0.00 | 0.00 | 89 | 1009.2 |
| 20260509114440 | 70 | 160 | 0.0 | 0.0 | 0.00 | 0.00 | 0.00 | 89 | 1009.0 |
| 20260509113939 | 70 | 176 | 1.0 | 1.0 | 0.00 | 0.00 | 0.00 | 88 | 1008.5 |
| 20260509113436 | 70 | 156 | 0.0 | 0.0 | 0.00 | 0.00 | 0.00 | 88 | 1008.9 |
| 20260509112933 | 70 | 160 | 0.0 | 0.0 | 0.00 | 0.00 | 0.00 | 88 | 1008.8 |
| 20260509112430 | 70 | 186 | 0.0 | 1.0 | 0.00 | 0.00 | 0.00 | 88 | 1008.7 |
| 20260509111927 | 70 | 167 | 0.0 | 0.0 | 0.00 | 0.00 | 0.00 | 88 | 1008.6 |
| 20260509111424 | 70 | 150 | 0.0 | 0.0 | 0.00 | 0.00 | 0.00 | 89 | 1008.5 |
| 20260509110922 | 70 | 160 | 0.0 | 0.0 | 0.00 | 0.00 | 0.00 | 89 | 1008.5 |
| 20260509110417 | 70 | 162 | 1.0 | 1.0 | 0.00 | 0.00 | 0.00 | 88 | 1008.1 |
| 20260509105915 | 70 | 159 | 0.0 | 0.0 | 0.00 | 0.00 | 0.00 | 89 | 1008.2 |
| 20260509105414 | 70 | 159 | 0.0 | 1.0 | 0.00 | 0.00 | 0.00 | 89 | 1008.2 |
| 20260509104911 | 70 | 139 | 0.0 | 0.0 | 0.00 | 0.00 | 0.00 | 90 | 1008.1 |
| 20260509104407 | 70 | 141 | 0.0 | 0.0 | 0.00 | 0.00 | 0.00 | 89 | 1008.0 |
| 20260509103905 | 71 | 150 | 0.0 | 0.0 | 0.00 | 0.00 | 0.00 | 89 | 1008.3 |
| 20260509103402 | 71 | 152 | 1.0 | 1.0 | 0.00 | 0.00 | 0.00 | 89 | 1008.5 |
| 20260509102901 | 71 | 156 | 2.0 | 2.0 | 0.00 | 0.00 | 0.00 | 89 | 1008.1 |
| 20260509102357 | 72 | 141 | 1.0 | 2.0 | 0.00 | 0.00 | 0.00 | 88 | 1008.2 |
| 20260509101853 | 72 | 138 | 1.0 | 2.0 | 0.00 | 0.00 | 0.00 | 89 | 1008.3 |
| 20260509101349 | 72 | 255 | 1.0 | 2.0 | 0.00 | 0.00 | 0.00 | 89 | 1008.6 |
| 20260509100847 | 71 | 342 | 2.0 | 2.0 | 0.00 | 0.00 | 0.00 | 90 | 1008.5 |
| 20260509100344 | 71 | 286 | 2.0 | 3.0 | 0.00 | 0.00 | 0.00 | 90 | 1008.5 |
| 20260509095841 | 71 | 336 | 4.0 | 5.0 | 0.00 | 0.00 | 0.00 | 91 | 1008.0 |
| 20260509095338 | 71 | 346 | 2.0 | 3.0 | 0.00 | 0.00 | 0.00 | 91 | 1007.6 |
| 20260509094835 | 71 | 172 | 2.0 | 2.0 | 0.00 | 0.00 | 0.00 | 92 | 1007.3 |
| 20260509094332 | 71 | 295 | 6.0 | 8.0 | 0.00 | 0.00 | 0.00 | 92 | 1007.1 |
| 20260509093830 | 70 | 156 | 2.0 | 3.0 | 0.00 | 0.00 | 0.00 | 92 | 1006.0 |
| 20260509093326 | 70 | 191 | 3.0 | 5.0 | 0.00 | 0.00 | 0.00 | 92 | 1006.0 |
| 20260509092825 | 70 | 191 | 2.0 | 2.0 | 0.00 | 0.00 | 0.00 | 92 | 1005.7 |
| 20260509092323 | 70 | 177 | 2.0 | 2.0 | 0.00 | 0.00 | 0.00 | 92 | 1005.7 |
| 20260509091820 | 70 | 175 | 5.0 | 7.0 | 0.00 | 0.00 | 0.00 | 92 | 1005.8 |
| 20260509091317 | 70 | 149 | 2.0 | 2.0 | 0.00 | 0.00 | 0.00 | 92 | 1005.7 |
| 20260509090814 | 70 | 149 | 3.0 | 7.0 | 0.00 | 0.00 | 0.00 | 92 | 1005.9 |
| 20260509090311 | 70 | 157 | 3.0 | 5.0 | 0.00 | 0.00 | 0.00 | 92 | 1006.1 |
| 20260509085809 | 70 | 156 | 4.0 | 5.0 | 0.00 | 0.00 | 0.00 | 91 | 1006.2 |
| 20260509085307 | 70 | 180 | 4.0 | 6.0 | 0.00 | 0.00 | 0.00 | 91 | 1006.3 |
| 20260509084803 | 70 | 101 | 4.0 | 7.0 | 0.00 | 0.00 | 0.00 | 91 | 1005.8 |
| 20260509084300 | 70 | 117 | 4.0 | 7.0 | 0.00 | 0.00 | 0.00 | 91 | 1005.8 |
| 20260509083757 | 70 | 161 | 4.0 | 6.0 | 0.00 | 0.00 | 0.00 | 91 | 1006.0 |
| 20260509083253 | 70 | 129 | 3.0 | 5.0 | 0.00 | 0.00 | 0.00 | 91 | 1006.1 |
| 20260509082750 | 70 | 146 | 3.0 | 5.0 | 0.00 | 0.00 | 0.00 | 91 | 1006.0 |
| 20260509082247 | 70 | 151 | 2.0 | 3.0 | 0.00 | 0.00 | 0.00 | 92 | 1006.9 |
| 20260509081744 | 70 | 132 | 0.0 | 0.0 | 0.00 | 0.00 | 0.00 | 92 | 1007.0 |
| 20260509081241 | 70 | 162 | 1.0 | 1.0 | 0.00 | 0.00 | 0.00 | 92 | 1007.4 |
| 20260509080739 | 70 | 157 | 2.0 | 3.0 | 0.00 | 0.00 | 0.00 | 92 | 1007.6 |
| 20260509080237 | 70 | 147 | 3.0 | 5.0 | 0.00 | 0.00 | 0.00 | 92 | 1008.2 |
| 20260509075735 | 70 | 157 | 3.0 | 3.0 | 0.00 | 0.00 | 0.00 | 92 | 1008.5 |
| 20260509075232 | 70 | 145 | 0.0 | 0.0 | 0.00 | 0.00 | 0.00 | 91 | 1008.7 |
| 20260509074729 | 70 | 129 | 0.0 | 0.0 | 0.00 | 0.00 | 0.00 | 91 | 1008.8 |
| 20260509074227 | 70 | 156 | 1.0 | 1.0 | 0.00 | 0.00 | 0.00 | 91 | 1008.9 |
| 20260509073723 | 70 | 128 | 1.0 | 1.0 | 0.00 | 0.00 | 0.00 | 91 | 1009.1 |
| 20260509073219 | 70 | 157 | 2.0 | 2.0 | 0.00 | 0.00 | 0.00 | 91 | 1009.5 |
| 20260509072716 | 70 | 164 | 2.0 | 2.0 | 0.00 | 0.00 | 0.00 | 91 | 1009.3 |
| 20260509072213 | 70 | 146 | 0.0 | 0.0 | 0.00 | 0.00 | 0.00 | 91 | 1009.7 |
| 20260509071709 | 70 | 159 | 0.0 | 0.0 | 0.00 | 0.00 | 0.00 | 91 | 1009.9 |
| 20260509071207 | 70 | 158 | 1.0 | 1.0 | 0.00 | 0.00 | 0.00 | 91 | 1010.2 |
| 20260509070703 | 70 | 158 | 0.0 | 1.0 | 0.00 | 0.00 | 0.00 | 91 | 1010.2 |
| 20260509070200 | 70 | 147 | 0.0 | 1.0 | 0.00 | 0.00 | 0.00 | 92 | 1010.4 |
| 20260509065656 | 70 | 145 | 0.0 | 0.0 | 0.00 | 0.00 | 0.00 | 91 | 1010.2 |
| 20260509065152 | 70 | 149 | 0.0 | 0.0 | 0.00 | 0.00 | 0.00 | 91 | 1010.2 |
| 20260509064649 | 70 | 154 | 0.0 | 0.0 | 0.00 | 0.00 | 0.00 | 91 | 1010.0 |
| 20260509064147 | 70 | 158 | 0.0 | 0.0 | 0.00 | 0.00 | 0.00 | 91 | 1009.9 |
| 20260509063643 | 70 | 158 | 0.0 | 0.0 | 0.00 | 0.00 | 0.00 | 90 | 1010.0 |
| 20260509063140 | 71 | 146 | 0.0 | 0.0 | 0.00 | 0.00 | 0.00 | 90 | 1009.8 |
| 20260509062637 | 71 | 153 | 0.0 | 0.0 | 0.00 | 0.00 | 0.00 | 90 | 1009.9 |
| 20260509062134 | 71 | 163 | 0.0 | 0.0 | 0.00 | 0.00 | 0.00 | 90 | 1009.9 |
| 20260509061631 | 71 | 147 | 1.0 | 1.0 | 0.00 | 0.00 | 0.00 | 90 | 1010.0 |
| 20260509061129 | 71 | 157 | 0.0 | 0.0 | 0.00 | 0.00 | 0.00 | 90 | 1010.3 |
| 20260509060626 | 71 | 157 | 0.0 | 0.0 | 0.00 | 0.00 | 0.00 | 90 | 1010.6 |
| 20260509060122 | 71 | 77 | 0.0 | 0.0 | 0.00 | 0.00 | 0.00 | 90 | 1010.0 |
| 20260509055618 | 71 | 153 | 0.0 | 0.0 | 0.00 | 0.00 | 0.00 | 90 | 1010.0 |
| 20260509055113 | 71 | 166 | 0.0 | 0.0 | 0.00 | 0.00 | 0.00 | 90 | 1010.1 |
| 20260509054611 | 71 | 145 | 0.0 | 0.0 | 0.00 | 0.00 | 0.00 | 90 | 1010.4 |
| 20260509054108 | 70 | 155 | 1.0 | 1.0 | 0.00 | 0.00 | 0.00 | 90 | 1010.4 |
| 20260509053607 | 70 | 258 | 1.0 | 1.0 | 0.00 | 0.00 | 0.00 | 90 | 1010.2 |
| 20260509053103 | 70 | 223 | 1.0 | 1.0 | 0.00 | 0.00 | 0.00 | 90 | 1010.0 |
| 20260509052601 | 71 | 79 | 2.0 | 2.0 | 0.00 | 0.00 | 0.00 | 90 | 1009.7 |
| 20260509052059 | 71 | 127 | 0.0 | 0.0 | 0.00 | 0.00 | 0.00 | 90 | 1009.6 |
| 20260509051556 | 70 | 134 | 0.0 | 0.0 | 0.00 | 0.00 | 0.00 | 89 | 1009.4 |
| 20260509051053 | 71 | 134 | 0.0 | 0.0 | 0.00 | 0.00 | 0.00 | 89 | 1009.4 |
| 20260509050550 | 71 | 133 | 0.0 | 0.0 | 0.00 | 0.00 | 0.00 | 89 | 1009.3 |
| 20260509050046 | 71 | 138 | 0.0 | 0.0 | 0.00 | 0.00 | 0.00 | 89 | 1009.4 |
| 20260509045544 | 71 | 130 | 1.0 | 1.0 | 0.00 | 0.00 | 0.00 | 88 | 1009.3 |
| 20260509045041 | 71 | 150 | 0.0 | 0.0 | 0.00 | 0.00 | 0.00 | 88 | 1009.2 |
| 20260509044538 | 71 | 149 | 0.0 | 0.0 | 0.00 | 0.00 | 0.00 | 88 | 1009.2 |
| 20260509044035 | 71 | 152 | 0.0 | 0.0 | 0.00 | 0.00 | 0.00 | 87 | 1009.3 |
| 20260509043532 | 72 | 147 | 0.0 | 0.0 | 0.00 | 0.00 | 0.00 | 87 | 1009.4 |
| 20260509043027 | 72 | 145 | 0.0 | 0.0 | 0.00 | 0.00 | 0.00 | 87 | 1009.3 |
| 20260509042524 | 72 | 153 | 0.0 | 0.0 | 0.00 | 0.00 | 0.00 | 86 | 1009.2 |
| 20260509042020 | 72 | 143 | 1.0 | 1.0 | 0.00 | 0.00 | 0.00 | 86 | 1009.1 |
| 20260509041517 | 72 | 151 | 2.0 | 2.0 | 0.00 | 0.00 | 0.00 | 86 | 1009.8 |
| 20260509041015 | 72 | 128 | 2.0 | 2.0 | 0.00 | 0.00 | 0.00 | 86 | 1010.1 |
| 20260509040513 | 72 | 40 | 1.0 | 2.0 | 0.00 | 0.00 | 0.00 | 86 | 1010.0 |
| 20260509040009 | 72 | 98 | 0.0 | 0.0 | 0.00 | 0.00 | 0.00 | 86 | 1009.6 |
| 20260509035506 | 72 | 125 | 0.0 | 0.0 | 0.00 | 0.00 | 0.00 | 86 | 1009.4 |
| 20260509035003 | 72 | 128 | 1.0 | 1.0 | 0.00 | 0.00 | 0.00 | 86 | 1009.5 |
| 20260509034501 | 72 | 132 | 0.0 | 0.0 | 0.00 | 0.00 | 0.00 | 86 | 1009.2 |
| 20260509033958 | 72 | 158 | 3.0 | 3.0 | 0.00 | 0.00 | 0.00 | 86 | 1008.9 |
| 20260509033454 | 72 | 123 | 1.0 | 1.0 | 0.00 | 0.00 | 0.00 | 86 | 1009.0 |
| 20260509032951 | 72 | 136 | 0.0 | 0.0 | 0.00 | 0.00 | 0.00 | 86 | 1008.9 |
| 20260509032449 | 72 | 139 | 0.0 | 0.0 | 0.00 | 0.00 | 0.00 | 85 | 1009.1 |
| 20260509031946 | 72 | 129 | 2.0 | 3.0 | 0.00 | 0.00 | 0.00 | 85 | 1008.8 |
| 20260509031443 | 73 | 139 | 0.0 | 0.0 | 0.00 | 0.00 | 0.00 | 85 | 1008.6 |
| 20260509030940 | 73 | 130 | 1.0 | 1.0 | 0.00 | 0.00 | 0.00 | 84 | 1008.6 |
| 20260509030439 | 73 | 151 | 3.0 | 3.0 | 0.00 | 0.00 | 0.00 | 84 | 1008.5 |
| 20260509025935 | 73 | 128 | 1.0 | 1.0 | 0.00 | 0.00 | 0.00 | 84 | 1008.6 |
| 20260509025431 | 73 | 107 | 1.0 | 1.0 | 0.00 | 0.00 | 0.00 | 83 | 1008.3 |
| 20260509024926 | 73 | 144 | 1.0 | 1.0 | 0.00 | 0.00 | 0.00 | 83 | 1008.3 |
| 20260509024422 | 73 | 140 | 2.0 | 2.0 | 0.00 | 0.00 | 0.00 | 83 | 1008.0 |
| 20260509023920 | 73 | 138 | 0.0 | 1.0 | 0.00 | 0.00 | 0.00 | 83 | 1008.0 |
| 20260509023417 | 73 | 145 | 1.0 | 1.0 | 0.00 | 0.00 | 0.00 | 83 | 1007.9 |
| 20260509022913 | 73 | 133 | 3.0 | 6.0 | 0.00 | 0.00 | 0.00 | 83 | 1007.8 |
| 20260509022411 | 73 | 129 | 0.0 | 1.0 | 0.00 | 0.00 | 0.00 | 83 | 1007.7 |
| 20260509021908 | 73 | 156 | 0.0 | 1.0 | 0.00 | 0.00 | 0.00 | 83 | 1008.0 |
| 20260509021405 | 73 | 140 | 1.0 | 1.0 | 0.00 | 0.00 | 0.00 | 83 | 1008.0 |
| 20260509020902 | 73 | 144 | 1.0 | 2.0 | 0.00 | 0.00 | 0.00 | 82 | 1007.8 |
| 20260509020400 | 73 | 159 | 2.0 | 3.0 | 0.00 | 0.00 | 0.00 | 82 | 1007.8 |
| 20260509015857 | 73 | 151 | 1.0 | 2.0 | 0.00 | 0.00 | 0.00 | 82 | 1007.8 |
| 20260509015355 | 73 | 176 | 2.0 | 2.0 | 0.00 | 0.00 | 0.00 | 82 | 1008.1 |
| 20260509014852 | 73 | 136 | 1.0 | 1.0 | 0.00 | 0.00 | 0.00 | 82 | 1007.9 |
| 20260509014349 | 73 | 150 | 1.0 | 1.0 | 0.00 | 0.00 | 0.00 | 82 | 1008.1 |
| 20260509013845 | 73 | 144 | 1.0 | 1.0 | 0.00 | 0.00 | 0.00 | 82 | 1008.1 |
| 20260509013342 | 73 | 122 | 1.0 | 2.0 | 0.00 | 0.00 | 0.00 | 82 | 1007.9 |
| 20260509012838 | 73 | 138 | 1.0 | 2.0 | 0.00 | 0.00 | 0.00 | 82 | 1007.8 |
| 20260509012334 | 73 | 132 | 0.0 | 0.0 | 0.00 | 0.00 | 0.00 | 82 | 1007.8 |
| 20260509011832 | 73 | 151 | 1.0 | 1.0 | 0.00 | 0.00 | 0.00 | 82 | 1007.8 |
| 20260509011329 | 73 | 133 | 1.0 | 1.0 | 0.00 | 0.00 | 0.00 | 82 | 1007.8 |
| 20260509010827 | 73 | 135 | 0.0 | 0.0 | 0.00 | 0.00 | 0.00 | 82 | 1007.6 |
| 20260509010324 | 73 | 141 | 1.0 | 1.0 | 0.00 | 0.00 | 0.00 | 82 | 1007.5 |
| 20260509005821 | 73 | 155 | 1.0 | 1.0 | 0.00 | 0.00 | 0.00 | 81 | 1007.4 |
| 20260509005319 | 73 | 164 | 0.0 | 1.0 | 0.00 | 0.00 | 0.00 | 81 | 1007.3 |
| 20260509004819 | 73 | 173 | 5.0 | 6.0 | 0.00 | 0.00 | 0.00 | 81 | 1007.1 |
| 20260509004316 | 74 | 149 | 1.0 | 1.0 | 0.00 | 0.00 | 0.00 | 81 | 1007.1 |
| 20260509003814 | 74 | 146 | 1.0 | 1.0 | 0.00 | 0.00 | 0.00 | 81 | 1007.2 |
| 20260509003312 | 74 | 163 | 1.0 | 2.0 | 0.00 | 0.00 | 0.00 | 81 | 1007.2 |
| 20260509002809 | 74 | 147 | 0.0 | 0.0 | 0.00 | 0.00 | 0.00 | 80 | 1007.2 |
| 20260509002306 | 74 | 138 | 1.0 | 2.0 | 0.00 | 0.00 | 0.00 | 80 | 1007.3 |
| 20260509001804 | 74 | 148 | 1.0 | 1.0 | 0.00 | 0.00 | 0.00 | 80 | 1007.2 |
| 20260509001259 | 74 | 163 | 1.0 | 1.0 | 0.00 | 0.00 | 0.00 | 80 | 1007.3 |
| 20260509000757 | 74 | 201 | 1.0 | 2.0 | 0.00 | 0.00 | 0.00 | 79 | 1007.4 |
| 20260509000256 | 74 | 156 | 1.0 | 2.0 | 0.00 | 0.00 | 0.00 | 79 | 1007.3 |
| 20260508235751 | 74 | 157 | 2.0 | 2.0 | 0.00 | 0.00 | 0.00 | 79 | 1007.6 |
| 20260508235248 | 74 | 166 | 1.0 | 1.0 | 0.00 | 0.00 | 0.00 | 79 | 1007.3 |
| 20260508234745 | 74 | 128 | 2.0 | 2.0 | 0.00 | 0.00 | 0.00 | 78 | 1007.4 |
| 20260508234241 | 74 | 88 | 1.0 | 1.0 | 0.00 | 0.00 | 0.00 | 78 | 1007.8 |
| 20260508233741 | 74 | 110 | 1.0 | 2.0 | 0.00 | 0.00 | 0.00 | 78 | 1007.9 |
| 20260508233239 | 74 | 157 | 2.0 | 2.0 | 0.00 | 0.00 | 0.00 | 78 | 1007.6 |
| 20260508232736 | 74 | 172 | 2.0 | 2.0 | 0.00 | 0.00 | 0.00 | 78 | 1007.5 |
| 20260508232232 | 74 | 138 | 1.0 | 1.0 | 0.00 | 0.00 | 0.00 | 77 | 1007.4 |
| 20260508231730 | 74 | 146 | 2.0 | 2.0 | 0.00 | 0.00 | 0.00 | 77 | 1007.5 |
| 20260508231226 | 74 | 156 | 1.0 | 2.0 | 0.00 | 0.00 | 0.00 | 77 | 1007.7 |
| 20260508230724 | 74 | 127 | 2.0 | 2.0 | 0.00 | 0.00 | 0.00 | 76 | 1007.4 |
| 20260508230219 | 74 | 127 | 2.0 | 3.0 | 0.00 | 0.00 | 0.00 | 76 | 1007.5 |
| 20260508225718 | 75 | 148 | 2.0 | 3.0 | 0.00 | 0.00 | 0.00 | 75 | 1007.7 |
| 20260508225214 | 76 | 122 | 3.0 | 5.0 | 0.00 | 0.00 | 0.00 | 73 | 1007.6 |
| 20260508224712 | 76 | 125 | 2.0 | 5.0 | 0.00 | 0.00 | 0.00 | 73 | 1007.5 |
| 20260508224209 | 75 | 204 | 1.0 | 2.0 | 0.00 | 0.00 | 0.00 | 75 | 1007.5 |
| 20260508223707 | 75 | 125 | 4.0 | 5.0 | 0.00 | 0.00 | 0.00 | 73 | 1007.6 |
| 20260508223203 | 75 | 118 | 1.0 | 3.0 | 0.00 | 0.00 | 0.00 | 74 | 1007.6 |
| 20260508222701 | 74 | 152 | 3.0 | 3.0 | 0.00 | 0.00 | 0.00 | 74 | 1007.6 |
| 20260508222158 | 75 | 158 | 4.0 | 5.0 | 0.00 | 0.00 | 0.00 | 73 | 1007.7 |
| 20260508221654 | 75 | 125 | 2.0 | 2.0 | 0.00 | 0.00 | 0.00 | 73 | 1007.9 |
| 20260508221150 | 74 | 125 | 3.0 | 5.0 | 0.00 | 0.00 | 0.00 | 73 | 1007.8 |
| 20260508220647 | 74 | 154 | 3.0 | 5.0 | 0.00 | 0.00 | 0.00 | 74 | 1008.0 |
| 20260508220144 | 73 | 144 | 5.0 | 6.0 | 0.00 | 0.00 | 0.00 | 74 | 1007.7 |
| 20260508215640 | 74 | 74 | 4.0 | 5.0 | 0.00 | 0.00 | 0.00 | 73 | 1008.0 |
| 20260508215137 | 73 | 152 | 1.0 | 1.0 | 0.00 | 0.00 | 0.00 | 74 | 1008.2 |
| 20260508214634 | 74 | 150 | 3.0 | 3.0 | 0.00 | 0.00 | 0.00 | 72 | 1008.2 |
| 20260508214131 | 73 | 159 | 2.0 | 2.0 | 0.00 | 0.00 | 0.00 | 73 | 1008.0 |
| 20260508213628 | 73 | 144 | 2.0 | 2.0 | 0.00 | 0.00 | 0.00 | 74 | 1008.0 |
| 20260508213124 | 73 | 128 | 3.0 | 5.0 | 0.00 | 0.00 | 0.00 | 74 | 1008.5 |
| 20260508212620 | 73 | 144 | 2.0 | 2.0 | 0.00 | 0.00 | 0.00 | 74 | 1008.6 |
| 20260508212117 | 73 | 122 | 1.0 | 1.0 | 0.00 | 0.00 | 0.00 | 73 | 1008.7 |
| 20260508211612 | 74 | 154 | 4.0 | 6.0 | 0.00 | 0.00 | 0.00 | 71 | 1008.7 |
| 20260508211109 | 73 | 148 | 2.0 | 2.0 | 0.00 | 0.00 | 0.00 | 71 | 1008.8 |
| 20260508210605 | 73 | 173 | 4.0 | 5.0 | 0.00 | 0.00 | 0.00 | 72 | 1008.6 |
| 20260508205600 | 73 | 139 | 3.0 | 3.0 | 0.00 | 0.00 | 0.00 | 72 | 1008.3 |
| 20260508205056 | 71 | 191 | 2.0 | 3.0 | 0.00 | 0.00 | 0.00 | 77 | 1008.7 |
| 20260508204552 | 70 | 192 | 1.0 | 2.0 | 0.00 | 0.00 | 0.00 | 79 | 1009.3 |
| 20260508204048 | 69 | 110 | 3.0 | 3.0 | 0.00 | 0.00 | 0.00 | 78 | 1008.1 |
| 20260508203545 | 69 | 114 | 2.0 | 2.0 | 0.00 | 0.00 | 0.00 | 78 | 1008.6 |
| 20260508203041 | 69 | 108 | 3.0 | 3.0 | 0.00 | 0.00 | 0.00 | 77 | 1008.9 |
| 20260508202538 | 70 | 159 | 2.0 | 2.0 | 0.00 | 0.00 | 0.00 | 77 | 1009.5 |
| 20260508202035 | 70 | 131 | 2.0 | 2.0 | 0.00 | 0.00 | 0.00 | 75 | 1009.5 |
| 20260508201532 | 71 | 130 | 1.0 | 2.0 | 0.00 | 0.00 | 0.00 | 74 | 1009.7 |
| 20260508201028 | 71 | 164 | 1.0 | 1.0 | 0.00 | 0.00 | 0.00 | 72 | 1010.3 |
| 20260508200525 | 71 | 66 | 2.0 | 3.0 | 0.00 | 0.00 | 0.00 | 70 | 1010.3 |
| 20260508200021 | 72 | 141 | 1.0 | 1.0 | 0.00 | 0.00 | 0.00 | 71 | 1010.2 |
| 20260508195518 | 72 | 160 | 2.0 | 2.0 | 0.00 | 0.00 | 0.00 | 71 | 1010.3 |
| 20260508195014 | 72 | 146 | 2.0 | 2.0 | 0.00 | 0.00 | 0.00 | 71 | 1010.3 |
| 20260508194511 | 72 | 143 | 6.0 | 7.0 | 0.00 | 0.00 | 0.00 | 70 | 1010.2 |
| 20260508194008 | 73 | 119 | 1.0 | 2.0 | 0.00 | 0.00 | 0.00 | 69 | 1010.3 |
| 20260508193504 | 73 | 209 | 2.0 | 2.0 | 0.00 | 0.00 | 0.00 | 70 | 1010.1 |
| 20260508193001 | 73 | 133 | 3.0 | 3.0 | 0.00 | 0.00 | 0.00 | 69 | 1010.1 |
| 20260508192458 | 75 | 146 | 5.0 | 6.0 | 0.00 | 0.00 | 0.00 | 66 | 1010.1 |
| 20260508191955 | 74 | 267 | 3.0 | 5.0 | 0.00 | 0.00 | 0.00 | 67 | 1010.2 |
| 20260508191452 | 74 | 129 | 8.0 | 9.0 | 0.00 | 0.00 | 0.00 | 67 | 1010.1 |
| 20260508190949 | 74 | 152 | 1.0 | 2.0 | 0.00 | 0.00 | 0.00 | 68 | 1010.4 |
| 20260508190446 | 73 | 144 | 3.0 | 3.0 | 0.00 | 0.00 | 0.00 | 69 | 1010.3 |
| 20260508185942 | 73 | 188 | 2.0 | 2.0 | 0.00 | 0.00 | 0.00 | 68 | 1010.5 |
| 20260508185440 | 73 | 217 | 3.0 | 3.0 | 0.00 | 0.00 | 0.00 | 69 | 1010.4 |
| 20260508184937 | 73 | 159 | 3.0 | 5.0 | 0.00 | 0.00 | 0.00 | 69 | 1010.5 |
| 20260508184434 | 73 | 135 | 2.0 | 3.0 | 0.00 | 0.00 | 0.00 | 68 | 1010.8 |
| 20260508183931 | 73 | 169 | 3.0 | 3.0 | 0.00 | 0.00 | 0.00 | 69 | 1010.7 |
| 20260508183427 | 74 | 184 | 2.0 | 3.0 | 0.00 | 0.00 | 0.00 | 69 | 1010.6 |
| 20260508182922 | 75 | 191 | 1.0 | 2.0 | 0.00 | 0.00 | 0.00 | 67 | 1010.8 |
| 20260508182420 | 75 | 155 | 3.0 | 5.0 | 0.00 | 0.00 | 0.00 | 67 | 1010.7 |
| 20260508181915 | 75 | 186 | 5.0 | 6.0 | 0.00 | 0.00 | 0.00 | 65 | 1011.0 |
| 20260508181412 | 75 | 187 | 3.0 | 3.0 | 0.00 | 0.00 | 0.00 | 66 | 1010.8 |
| 20260508180909 | 75 | 131 | 1.0 | 1.0 | 0.00 | 0.00 | 0.00 | 66 | 1010.9 |
| 20260508180406 | 75 | 129 | 2.0 | 3.0 | 0.00 | 0.00 | 0.00 | 66 | 1010.9 |
| 20260508175902 | 75 | 158 | 2.0 | 3.0 | 0.00 | 0.00 | 0.00 | 66 | 1010.8 |
| 20260508175359 | 75 | 134 | 0.0 | 1.0 | 0.00 | 0.00 | 0.00 | 67 | 1011.0 |
| 20260508174857 | 75 | 145 | 0.0 | 1.0 | 0.00 | 0.00 | 0.00 | 67 | 1011.0 |
| 20260508174354 | 73 | 238 | 2.0 | 2.0 | 0.00 | 0.00 | 0.00 | 68 | 1011.4 |
| 20260508173850 | 72 | 140 | 0.0 | 0.0 | 0.00 | 0.00 | 0.00 | 70 | 1011.3 |
| 20260508173348 | 72 | 133 | 1.0 | 1.0 | 0.00 | 0.00 | 0.00 | 70 | 1011.6 |
| 20260508172843 | 72 | 112 | 1.0 | 2.0 | 0.00 | 0.00 | 0.00 | 70 | 1011.6 |
| 20260508172341 | 72 | 156 | 2.0 | 2.0 | 0.00 | 0.00 | 0.00 | 69 | 1011.6 |
| 20260508171837 | 73 | 160 | 2.0 | 2.0 | 0.00 | 0.00 | 0.00 | 68 | 1011.8 |
| 20260508171333 | 73 | 154 | 3.0 | 3.0 | 0.00 | 0.00 | 0.00 | 67 | 1011.7 |
| 20260508170830 | 74 | 124 | 0.0 | 0.0 | 0.00 | 0.00 | 0.00 | 67 | 1011.8 |
| 20260508170328 | 72 | 138 | 1.0 | 2.0 | 0.00 | 0.00 | 0.00 | 69 | 1011.9 |
| 20260508165825 | 73 | 158 | 1.0 | 1.0 | 0.00 | 0.00 | 0.00 | 67 | 1012.1 |
| 20260508165322 | 71 | 127 | 1.0 | 2.0 | 0.00 | 0.00 | 0.00 | 70 | 1012.0 |
| 20260508164818 | 72 | 129 | 5.0 | 7.0 | 0.00 | 0.00 | 0.00 | 67 | 1012.0 |
| 20260508164315 | 72 | 124 | 2.0 | 2.0 | 0.00 | 0.00 | 0.00 | 67 | 1012.0 |
| 20260508163813 | 71 | 181 | 3.0 | 3.0 | 0.00 | 0.00 | 0.00 | 68 | 1012.2 |
| 20260508163310 | 70 | 94 | 1.0 | 2.0 | 0.00 | 0.00 | 0.00 | 70 | 1012.4 |
| 20260508162806 | 71 | 164 | 2.0 | 3.0 | 0.00 | 0.00 | 0.00 | 69 | 1012.5 |
| 20260508162306 | 70 | 128 | 2.0 | 3.0 | 0.00 | 0.00 | 0.00 | 69 | 1012.7 |
| 20260508161800 | 69 | 149 | 1.0 | 2.0 | 0.00 | 0.00 | 0.00 | 70 | 1012.3 |
| 20260508161257 | 69 | 176 | 3.0 | 5.0 | 0.00 | 0.00 | 0.00 | 71 | 1012.8 |
| 20260508160755 | 69 | 154 | 4.0 | 5.0 | 0.00 | 0.00 | 0.00 | 71 | 1012.9 |
| 20260508160253 | 68 | 149 | 3.0 | 3.0 | 0.00 | 0.00 | 0.00 | 72 | 1013.1 |
| 20260508155749 | 67 | 127 | 2.0 | 3.0 | 0.00 | 0.00 | 0.00 | 73 | 1013.2 |
| 20260508155246 | 67 | 179 | 2.0 | 2.0 | 0.00 | 0.00 | 0.00 | 73 | 1013.3 |
| 20260508154743 | 67 | 150 | 3.0 | 5.0 | 0.00 | 0.00 | 0.00 | 73 | 1013.3 |
| 20260508154241 | 67 | 148 | 2.0 | 3.0 | 0.00 | 0.00 | 0.00 | 72 | 1013.4 |
| 20260508153737 | 68 | 152 | 4.0 | 6.0 | 0.00 | 0.00 | 0.00 | 71 | 1013.4 |
| 20260508153235 | 68 | 152 | 2.0 | 2.0 | 0.00 | 0.00 | 0.00 | 71 | 1013.5 |
| 20260508152731 | 68 | 186 | 1.0 | 2.0 | 0.00 | 0.00 | 0.00 | 71 | 1013.3 |
| 20260508152226 | 68 | 161 | 1.0 | 2.0 | 0.00 | 0.00 | 0.00 | 70 | 1013.3 |
| 20260508151723 | 68 | 139 | 3.0 | 3.0 | 0.00 | 0.00 | 0.00 | 69 | 1013.4 |
| 20260508151220 | 69 | 187 | 1.0 | 2.0 | 0.00 | 0.00 | 0.00 | 69 | 1013.3 |
| 20260508150716 | 68 | 128 | 2.0 | 2.0 | 0.00 | 0.00 | 0.00 | 69 | 1013.4 |